Location: Allentsteig
(48.6833°N, 15.3167°E)
Time: 17:04:10
(UTC+00:00)

KORONAS-FOTON - Pass Details

Date: 18 September 2020
Orbit: 505 x 532 km, 82.4° (Epoch: 30 October)

Event Time Altitude Azimuth Distance (km) Brightness Sun altitude
Rises 19:20:52 0° 347° (NNW) 2,689 8.1 -22.3°
Reaches altitude 10° 19:23:02 10° 343° (NNW) 1,795 7.1 -22.6°
Maximum altitude 19:26:55 60° 265° (W) 616 4.3 -23.1°
Enters shadow 19:27:30 53° 224° (SW) 665 4.3 -23.2°
